Location: Melbourne
(37.8170°S, 144.9670°E)
Time: 01:36:25
(UTC+10:00)

deb Explorer IX - All Passes

Search period start: 18 August 2017 00:00
Search period end: 28 August 2017 00:00
Orbit: 538 x 1126 km, 38.8° (Epoch: 16 August)

Date Brightness Start Highest point End Pass type
(mag) Time Alt. Az. Time Alt. Az. Time Alt. Az.
18 Aug - 08:02:15 10° NNE 08:04:07 11° NE 08:06:03 10° ENE daylight
18 Aug - 09:44:20 10° NW 09:50:23 42° NNE 09:57:09 10° E daylight
18 Aug - 11:30:47 10° WNW 11:37:43 86° NNE 11:45:18 10° E daylight
18 Aug - 13:18:20 10° W 13:25:43 84° S 13:33:14 10° E daylight
18 Aug - 15:06:06 10° WSW 15:13:32 65° NNW 15:20:40 10° ENE daylight
18 Aug - 16:54:41 10° W 17:00:31 25° NW 17:06:00 10° NNE daylight
19 Aug - 07:42:12 10° NNE 07:44:08 11° NE 07:46:10 10° ENE daylight
19 Aug - 09:24:28 10° NW 09:30:23 43° NNE 09:37:06 10° E daylight
19 Aug - 11:10:55 10° WNW 11:17:44 87° NNE 11:25:15 10° E daylight
19 Aug - 12:58:25 10° W 13:05:42 85° S 13:13:15 10° E daylight
19 Aug - 14:46:07 10° WSW 14:53:30 63° NNW 15:00:43 10° NE daylight
19 Aug - 16:34:42 10° W 16:40:29 25° NW 16:45:59 10° NNE daylight
20 Aug - 07:22:11 10° NNE 07:24:11 12° NE 07:26:16 10° ENE daylight
20 Aug - 09:04:37 10° NW 09:10:24 44° NNE 09:17:03 10° E daylight
20 Aug - 10:51:04 10° WNW 10:57:44 88° NNE 11:05:13 10° E daylight
20 Aug - 12:38:30 10° W 12:45:41 85° S 12:53:15 10° E daylight
20 Aug - 14:26:09 10° WSW 14:33:28 62° NNW 14:40:44 10° NE daylight
20 Aug - 16:14:45 10° W 16:20:27 24° NW 16:25:56 10° NNE daylight
21 Aug - 07:02:12 10° NNE 07:04:14 12° NE 07:06:21 10° ENE daylight
21 Aug - 08:44:47 10° NW 08:50:26 45° NNE 08:56:59 10° E daylight
21 Aug - 10:31:14 10° WNW 10:37:45 89° NNE 10:45:10 10° E daylight
21 Aug - 12:18:37 10° W 12:25:40 86° S 12:33:14 10° E daylight
21 Aug - 14:06:12 10° WSW 14:13:26 60° NNW 14:20:44 10° NE daylight
21 Aug - 15:54:49 10° W 16:00:25 23° NW 16:05:52 10° N daylight
22 Aug - 06:42:15 10° NNE 06:44:18 12° NE 06:46:27 10° ENE daylight
22 Aug - 08:24:58 10° NW 08:30:29 46° NNE 08:36:56 10° E daylight
22 Aug - 10:11:24 10° WNW 10:17:47 90° N 10:25:06 10° E daylight
22 Aug - 11:58:45 10° W 12:05:41 86° S 12:13:13 10° E daylight
22 Aug - 13:46:16 10° W 13:53:24 59° NNW 14:00:43 10° NE daylight
22 Aug - 15:34:54 10° W 15:40:23 22° NW 15:45:47 10° N daylight
23 Aug - 06:22:20 10° NNE 06:24:22 12° NE 06:26:32 10° ENE visible
23 Aug - 08:05:11 10° NW 08:10:33 47° NNE 08:16:53 10° E daylight
23 Aug - 09:51:37 10° W 09:57:50 89° SSW 10:05:03 10° E daylight
23 Aug - 11:38:54 10° W 11:45:41 87° S 11:53:11 10° E daylight
23 Aug - 13:26:21 10° W 13:33:22 57° NNW 13:40:41 10° NE daylight
23 Aug - 15:15:01 10° W 15:20:21 21° NW 15:25:39 10° N daylight
24 Aug - 06:02:25 10° NNE 06:04:28 12° NE 06:06:38 10° ENE visible
24 Aug - 07:45:25 10° NW 07:50:39 47° NNE 07:56:50 10° E daylight
24 Aug - 09:31:51 10° W 09:37:54 88° SSW 09:44:59 10° E daylight
24 Aug - 11:19:04 10° W 11:25:43 88° S 11:33:09 10° E daylight
24 Aug - 13:06:28 10° W 13:13:21 55° NNW 13:20:38 10° NE daylight
24 Aug - 14:55:11 10° W 15:00:20 20° NW 15:05:30 10° N daylight
25 Aug - 05:42:32 10° NNE 05:44:35 12° NE 05:46:44 10° ENE visible
25 Aug - 07:25:39 10° NW 07:30:45 48° NNE 07:36:48 10° E daylight
25 Aug - 09:12:06 10° W 09:17:59 87° S 09:24:56 10° E daylight
25 Aug - 10:59:15 10° W 11:05:45 88° S 11:13:06 10° E daylight
25 Aug - 12:46:37 10° W 12:53:21 53° NNW 13:00:34 10° NE daylight
25 Aug - 14:35:22 10° W 14:40:19 20° NW 14:45:19 10° N daylight
26 Aug - 05:22:39 10° NNE 05:24:42 12° NE 05:26:52 10° ENE visible
26 Aug - 07:05:55 10° NW 07:10:52 49° NNE 07:16:46 10° E daylight
26 Aug - 08:52:22 10° W 08:58:05 86° S 09:04:53 10° E daylight
26 Aug - 10:39:28 10° W 10:45:48 89° S 10:53:03 10° E daylight
26 Aug - 12:26:46 10° W 12:33:21 51° NNW 12:40:30 10° NE daylight
26 Aug - 14:15:36 10° W 14:20:18 18° NW 14:25:06 10° N daylight
27 Aug - 05:02:47 10° NNE 05:04:50 13° NE 05:07:00 10° ENE visible
27 Aug - 06:46:11 10° NW 06:51:00 50° NNE 06:56:45 10° E daylight
27 Aug - 08:32:39 10° W 08:38:12 85° S 08:44:50 10° E daylight
27 Aug - 10:19:42 10° W 10:25:52 90° NE 10:33:00 10° ENE daylight
27 Aug - 12:06:57 10° W 12:13:22 49° NNW 12:20:25 10° NE daylight
27 Aug - 13:55:51 10° WNW 14:00:18 17° NW 14:04:51 10° N daylight
